MAH752 LHBP-EKCH

Flight info

Callsign MAH752
Flight time 1h 33m
Altitude 38000
Route LITKU Y301 KALIF/N0449F380 DCT BILNA DCT REGLI L617 ADVAB L619 DENKO L996 GOSOT/N0430F280 L996 ROE M743 TIDVU
Aircraft B738/M-SDFGIRWY/LB1

Departure

Time 2026-05-04 15:46
Airport Budapest Liszt Ferenc International Airport (LHBP)

Arrival

Time 2026-05-04 17:19
Airport Copenhagen Kastrup Airport (EKCH)
Time Latitude Longitude Altitude Speed Heading
2026-05-04 14:38 47.43414 19.26131 456 ft 0 kts 132°
2026-05-04 15:39 47.43429 19.26104 453 ft 4 kts 124°
2026-05-04 15:39 47.43442 19.26070 453 ft 4 kts 111°
2026-05-04 15:39 47.43442 19.26003 453 ft 1 kts 42°
2026-05-04 15:40 47.43441 19.26002 453 ft 0 kts 42°
2026-05-04 15:42 47.43442 19.26003 453 ft 0 kts 42°
2026-05-04 15:42 47.43452 19.26017 455 ft 4 kts 42°
2026-05-04 15:42 47.43481 19.26056 456 ft 8 kts 41°
2026-05-04 15:43 47.43531 19.26122 454 ft 11 kts 42°
2026-05-04 15:43 47.43593 19.26176 456 ft 12 kts 355°
2026-05-04 15:43 47.43661 19.26091 456 ft 15 kts 313°
2026-05-04 15:43 47.43721 19.25994 456 ft 12 kts 312°
2026-05-04 15:44 47.43800 19.26001 455 ft 14 kts 37°
2026-05-04 15:44 47.43881 19.26108 455 ft 17 kts 42°
2026-05-04 15:44 47.43974 19.26232 457 ft 19 kts 42°
2026-05-04 15:44 47.44060 19.26378 466 ft 19 kts 69°
2026-05-04 15:45 47.44045 19.26562 466 ft 20 kts 128°
2026-05-04 15:45 47.43880 19.26826 471 ft 67 kts 132°
2026-05-04 15:45 47.43401 19.27600 466 ft 134 kts 133°
2026-05-04 15:45 47.42636 19.28802 584 ft 178 kts 136°
2026-05-04 15:46 47.41808 19.30113 1493 ft 170 kts 138°
2026-05-04 15:46 47.41227 19.31718 2240 ft 181 kts 106°
2026-05-04 15:46 47.40754 19.33552 2722 ft 204 kts 124°
2026-05-04 15:46 47.39979 19.35469 2926 ft 229 kts 123°
2026-05-04 15:47 47.39174 19.37540 3369 ft 239 kts 122°
2026-05-04 15:47 47.38460 19.39819 3863 ft 255 kts 105°
2026-05-04 15:47 47.38541 19.42519 4335 ft 275 kts 73°
2026-05-04 15:47 47.39516 19.44957 5214 ft 281 kts 51°
2026-05-04 15:48 47.40894 19.47037 6119 ft 284 kts 43°
2026-05-04 15:48 47.42350 19.49001 6967 ft 288 kts 42°
2026-05-04 15:48 47.45345 19.53027 8641 ft 295 kts 43°
2026-05-04 15:49 47.46363 19.54419 9286 ft 295 kts 44°
2026-05-04 15:49 47.47869 19.56500 10043 ft 300 kts 44°
2026-05-04 15:49 47.49932 19.59376 10736 ft 320 kts 44°
2026-05-04 15:49 47.51041 19.60929 10896 ft 336 kts 44°
2026-05-04 15:50 47.52770 19.63355 11531 ft 343 kts 44°
2026-05-04 15:50 47.54506 19.65767 12302 ft 347 kts 40°
2026-05-04 15:50 47.56617 19.67547 13013 ft 354 kts 17°
2026-05-04 15:50 47.59058 19.67982 13872 ft 356 kts 354°
2026-05-04 15:51 47.61450 19.66967 14575 ft 360 kts 331°
2026-05-04 15:51 47.63401 19.64728 15423 ft 358 kts 314°
2026-05-04 15:51 47.65103 19.62019 16240 ft 361 kts 311°
2026-05-04 15:51 47.66799 19.59195 16991 ft 365 kts 311°
2026-05-04 15:52 47.68487 19.56385 17773 ft 368 kts 311°
2026-05-04 15:52 47.70219 19.53546 18526 ft 371 kts 312°
2026-05-04 15:52 47.71953 19.50736 19212 ft 373 kts 312°
2026-05-04 15:52 47.73713 19.47901 19884 ft 376 kts 313°
2026-05-04 15:53 47.75800 19.45516 20493 ft 382 kts 333°
2026-05-04 15:53 47.78351 19.44355 21182 ft 386 kts 353°
2026-05-04 15:53 47.81017 19.44535 21790 ft 392 kts 12°
2026-05-04 15:53 47.83547 19.46042 22373 ft 398 kts 32°
2026-05-04 15:54 47.85702 19.48676 23012 ft 402 kts 42°
2026-05-04 15:54 47.87755 19.51597 23574 ft 407 kts 43°
2026-05-04 15:54 47.89800 19.54498 24065 ft 410 kts 42°
2026-05-04 15:54 47.91923 19.57387 24627 ft 410 kts 36°
2026-05-04 15:55 47.94411 19.59411 25146 ft 408 kts 17°
2026-05-04 15:55 47.97157 19.60184 25656 ft 407 kts
2026-05-04 15:55 48.00001 19.60206 26107 ft 410 kts 358°
2026-05-04 15:55 48.02874 19.60129 26542 ft 413 kts 358°
2026-05-04 15:56 48.05750 19.60041 27087 ft 413 kts 358°
2026-05-04 15:56 48.08641 19.59974 27486 ft 418 kts 358°
2026-05-04 15:56 48.11535 19.59932 27890 ft 421 kts 358°
2026-05-04 15:56 48.14484 19.59907 28382 ft 422 kts 359°
2026-05-04 15:57 48.17441 19.59888 28828 ft 424 kts 359°
2026-05-04 15:57 48.20405 19.59870 29210 ft 427 kts 359°
2026-05-04 15:57 48.23364 19.59844 29592 ft 430 kts 358°
2026-05-04 15:57 48.26372 19.59657 29979 ft 432 kts 355°
2026-05-04 15:58 48.29377 19.59349 30326 ft 434 kts 355°
2026-05-04 15:58 48.32397 19.59009 30648 ft 436 kts 355°
2026-05-04 15:58 48.35396 19.58682 30951 ft 438 kts 355°
2026-05-04 15:58 48.38438 19.58369 31250 ft 440 kts 355°
2026-05-04 15:59 48.41512 19.58069 31558 ft 441 kts 355°
2026-05-04 15:59 48.44597 19.57772 31840 ft 444 kts 355°
2026-05-04 15:59 48.47665 19.57253 32092 ft 445 kts 347°
2026-05-04 15:59 48.50594 19.55879 32331 ft 446 kts 337°
2026-05-04 16:00 48.53349 19.53775 32779 ft 443 kts 327°
2026-05-04 16:00 48.55836 19.50977 33186 ft 442 kts 321°
2026-05-04 16:00 48.58214 19.48002 33532 ft 442 kts 320°
2026-05-04 16:00 48.60541 19.45033 33860 ft 442 kts 320°
2026-05-04 16:01 48.62891 19.42033 34214 ft 441 kts 320°
2026-05-04 16:01 48.65238 19.39053 34572 ft 439 kts 320°
2026-05-04 16:01 48.67568 19.36113 34876 ft 438 kts 320°
2026-05-04 16:01 48.69927 19.33150 35172 ft 438 kts 320°
2026-05-04 16:02 48.72285 19.30195 35454 ft 438 kts 320°
2026-05-04 16:02 48.74613 19.27280 35749 ft 438 kts 320°
2026-05-04 16:02 48.79319 19.21379 36323 ft 437 kts 320°
2026-05-04 16:03 48.81655 19.18445 36614 ft 436 kts 320°
2026-05-04 16:03 48.83988 19.15511 36932 ft 434 kts 320°
2026-05-04 16:03 48.86294 19.12606 37200 ft 434 kts 320°
2026-05-04 16:03 48.88623 19.09668 37472 ft 434 kts 319°
2026-05-04 16:04 48.90931 19.06752 37687 ft 434 kts 319°
2026-05-04 16:04 48.95596 19.00846 38039 ft 433 kts 319°
2026-05-04 16:04 48.97894 18.97934 38028 ft 434 kts 319°
2026-05-04 16:05 49.02528 18.92048 38027 ft 434 kts 319°
2026-05-04 16:06 49.09485 18.83183 38031 ft 433 kts 319°
2026-05-04 16:07 49.18690 18.71400 38022 ft 433 kts 319°
2026-05-04 16:08 49.27915 18.59534 38026 ft 433 kts 319°
2026-05-04 16:09 49.39502 18.44837 38012 ft 433 kts 325°
2026-05-04 16:10 49.50431 18.36885 37991 ft 436 kts 334°
2026-05-04 16:11 49.61472 18.29194 37978 ft 437 kts 333°
2026-05-04 16:12 49.78069 18.17423 37965 ft 438 kts 333°
2026-05-04 16:13 49.89170 18.09502 37973 ft 439 kts 333°
2026-05-04 16:14 50.00230 18.01571 37970 ft 439 kts 333°
2026-05-04 16:16 50.14439 17.92921 37972 ft 439 kts 338°
2026-05-04 16:17 50.28744 17.84677 37957 ft 438 kts 338°
2026-05-04 16:18 50.40142 17.78026 37957 ft 437 kts 338°
2026-05-04 16:19 50.54384 17.69676 37956 ft 436 kts 337°
2026-05-04 16:20 50.68563 17.61307 37952 ft 436 kts 337°
2026-05-04 16:22 50.82756 17.52857 37951 ft 436 kts 336°
2026-05-04 16:23 50.99792 17.42651 37943 ft 436 kts 336°
2026-05-04 16:25 51.16840 17.32369 37940 ft 437 kts 336°
2026-05-04 16:26 51.36744 17.20251 37945 ft 438 kts 336°
2026-05-04 16:28 51.50960 17.11527 37940 ft 438 kts 336°
2026-05-04 16:29 51.70869 16.99212 37939 ft 438 kts 336°
2026-05-04 16:31 51.85112 16.90331 37932 ft 439 kts 336°
2026-05-04 16:32 52.02177 16.79607 37928 ft 439 kts 335°
2026-05-04 16:33 52.13423 16.72096 37928 ft 435 kts 327°
2026-05-04 16:34 52.20600 16.63216 37938 ft 431 kts 318°
2026-05-04 16:35 52.33904 16.45934 37933 ft 432 kts 319°
2026-05-04 16:36 52.41742 16.35781 37930 ft 432 kts 319°
2026-05-04 16:37 52.48015 16.27618 37933 ft 432 kts 319°
2026-05-04 16:38 52.57430 16.15310 37929 ft 432 kts 319°
2026-05-04 16:39 52.69137 15.99897 37931 ft 432 kts 319°
2026-05-04 16:40 52.78501 15.87491 37927 ft 432 kts 318°
2026-05-04 16:41 52.83446 15.81777 37921 ft 437 kts 331°
2026-05-04 16:41 52.91808 15.75633 37927 ft 439 kts 333°
2026-05-04 16:43 53.05704 15.65243 37932 ft 439 kts 332°
2026-05-04 16:43 53.14045 15.58927 37930 ft 439 kts 332°
2026-05-04 16:45 53.30742 15.46205 37934 ft 440 kts 332°
2026-05-04 16:46 53.44635 15.35546 37950 ft 440 kts 332°
2026-05-04 16:47 53.50397 15.32106 37949 ft 446 kts 344°
2026-05-04 16:47 53.56515 15.30114 37953 ft 447 kts 345°
2026-05-04 16:48 53.68702 15.25921 37963 ft 447 kts 345°
2026-05-04 16:49 53.80857 15.21689 37957 ft 448 kts 344°
2026-05-04 16:50 53.93074 15.17388 37954 ft 448 kts 344°
2026-05-04 16:51 54.02248 15.14143 37963 ft 448 kts 344°
2026-05-04 16:52 54.14425 15.09814 37949 ft 448 kts 344°
2026-05-04 16:53 54.23605 15.06533 37951 ft 448 kts 344°
2026-05-04 16:54 54.35812 15.02121 37951 ft 449 kts 343°
2026-05-04 16:55 54.48017 14.97686 37677 ft 454 kts 343°
2026-05-04 16:55 54.54197 14.95441 36531 ft 451 kts 343°
2026-05-04 16:56 54.60339 14.93205 35202 ft 450 kts 343°
2026-05-04 16:56 54.69545 14.89830 32963 ft 454 kts 343°
2026-05-04 16:57 54.72647 14.88690 32157 ft 455 kts 343°
2026-05-04 16:57 54.78862 14.86403 30624 ft 456 kts 343°
2026-05-04 16:58 54.88009 14.82968 28762 ft 442 kts 343°
2026-05-04 16:58 54.90994 14.81827 28187 ft 437 kts 343°
2026-05-04 16:59 54.96449 14.77966 26861 ft 418 kts 320°
2026-05-04 17:00 55.03775 14.63234 24604 ft 395 kts 303°
2026-05-04 17:00 55.08782 14.51937 22864 ft 388 kts 303°
2026-05-04 17:01 55.12053 14.44575 21735 ft 382 kts 303°
2026-05-04 17:01 55.15283 14.37294 20668 ft 375 kts 303°
2026-05-04 17:02 55.18458 14.30116 19621 ft 370 kts 303°
2026-05-04 17:02 55.21566 14.23065 18585 ft 366 kts 303°
2026-05-04 17:03 55.23121 14.19531 17944 ft 366 kts 303°
2026-05-04 17:03 55.24688 14.15959 17213 ft 368 kts 303°
2026-05-04 17:03 55.27784 14.08900 16125 ft 361 kts 303°
2026-05-04 17:04 55.30803 14.01998 14974 ft 358 kts 303°
2026-05-04 17:04 55.33823 13.95067 13881 ft 355 kts 303°
2026-05-04 17:05 55.36805 13.88209 12808 ft 348 kts 303°
2026-05-04 17:05 55.39696 13.81544 11836 ft 340 kts 303°
2026-05-04 17:06 55.42532 13.74986 10883 ft 334 kts 303°
2026-05-04 17:06 55.43931 13.71747 10645 ft 324 kts 303°
2026-05-04 17:07 55.46520 13.65756 10376 ft 292 kts 302°
2026-05-04 17:07 55.47330 13.63877 10299 ft 282 kts 302°
2026-05-04 17:07 55.48866 13.60302 10147 ft 269 kts 302°
2026-05-04 17:07 55.49982 13.57700 10042 ft 261 kts 301°
2026-05-04 17:08 55.51064 13.55171 9848 ft 257 kts 301°
2026-05-04 17:08 55.53195 13.50176 9302 ft 254 kts 301°
2026-05-04 17:08 55.54254 13.47692 9021 ft 253 kts 301°
2026-05-04 17:09 55.55309 13.45217 8747 ft 251 kts 301°
2026-05-04 17:09 55.56351 13.42770 8479 ft 249 kts 301°
2026-05-04 17:09 55.57391 13.40327 8217 ft 247 kts 301°
2026-05-04 17:10 55.59443 13.35502 7689 ft 244 kts 301°
2026-05-04 17:10 55.62488 13.28320 6880 ft 244 kts 302°
2026-05-04 17:11 55.63507 13.25909 6549 ft 248 kts 302°
2026-05-04 17:11 55.64547 13.23448 6200 ft 249 kts 302°
2026-05-04 17:11 55.66643 13.18482 5500 ft 252 kts 302°
2026-05-04 17:12 55.67688 13.16005 5151 ft 254 kts 303°
2026-05-04 17:12 55.69733 13.10887 4457 ft 253 kts 297°
2026-05-04 17:13 55.72103 13.03164 3984 ft 224 kts 295°
2026-05-04 17:14 55.74173 12.96435 3664 ft 204 kts 295°
2026-05-04 17:14 55.74842 12.94250 3404 ft 197 kts 295°
2026-05-04 17:14 55.75716 12.89925 3008 ft 189 kts 255°
2026-05-04 17:15 55.75083 12.87896 3008 ft 188 kts 237°
2026-05-04 17:15 55.73505 12.84167 2927 ft 191 kts 230°
2026-05-04 17:16 55.71613 12.80811 2458 ft 194 kts 223°
2026-05-04 17:16 55.68558 12.76081 1679 ft 196 kts 222°
2026-05-04 17:17 55.67532 12.74492 1395 ft 191 kts 222°
2026-05-04 17:17 55.64833 12.70313 686 ft 155 kts 223°
2026-05-04 17:18 55.64040 12.69083 440 ft 148 kts 224°
2026-05-04 17:18 55.62526 12.66735 53 ft 140 kts 225°
2026-05-04 17:19 55.61359 12.64920 24 ft 72 kts 222°
2026-05-04 17:19 55.61205 12.64169 23 ft 23 kts 301°
2026-05-04 17:20 55.61466 12.64324 27 ft 21 kts 30°
2026-05-04 17:20 55.61672 12.64553 24 ft 20 kts 28°
2026-05-04 17:20 55.61835 12.64702 24 ft 17 kts 39°
2026-05-04 17:21 55.61890 12.64805 24 ft 11 kts 37°
2026-05-04 17:21 55.62045 12.64909 25 ft 14 kts 312°
2026-05-04 17:22 55.62131 12.64691 23 ft 18 kts 304°
2026-05-04 17:22 55.62179 12.64561 24 ft 20 kts 303°
2026-05-04 17:23 55.62412 12.63930 22 ft 20 kts 305°
2026-05-04 17:23 55.62515 12.63787 22 ft 17 kts 341°
2026-05-04 17:23 55.62621 12.63792 23 ft 0 kts 27°
2026-05-04 17:25 55.62656 12.63822 25 ft 9 kts 27°
2026-05-04 17:25 55.62768 12.63944 23 ft 9 kts 26°
2026-05-04 17:26 55.62847 12.63818 23 ft 3 kts 295°
2026-05-04 17:26 55.62901 12.63805 23 ft 0 kts 10°